Location: Sternwarte ZA, Rosenfeld-Brittheim
(48.2889°N, 8.6789°E)
Time: 09:04:28
(UTC+02:00)

ISS - Pass Details

Date: 18 May 2021
Orbit: 417 x 422 km, 51.6° (Epoch: 18 June)

Event Time Altitude Azimuth Distance (km) Brightness Sun altitude
Rises 02:53:00 0° 292° (WNW) 2,374 0.1 -19.1°
Reaches altitude 10° 02:55:08 10° 287° (WNW) 1,508 -1.0 -19.0°
Enters shadow 02:55:16 11° 287° (WNW) 1,453 -1.1 -19.0°
